This is the latest recevied weather packets stored in our database for station/object MB7UUE. If no packets are shown the sender has not sent any weather packets the latest 10 day(s).
| Time | Temp. | Humidity | Pressure | Rain* | Wind** | Luminosity | Snow |
|---|---|---|---|---|---|---|---|
| 1787817712 | 19.44° C | 88% | 1008.7 hPa | 2.29 mm | - | - | - |
| 1787817417 | 19.44° C | 88% | 1008.8 hPa | 1.78 mm | - | - | - |
| 1787816573 | 20° C | 88% | 1008.7 hPa | 1.52 mm | - | - | - |
| 1787816279 | 20° C | 88% | 1008.7 hPa | 1.02 mm | - | - | - |
| 1787815432 | 20° C | 88% | 1008.6 hPa | 0.76 mm | - | - | - |
| 1787815138 | 20° C | 88% | 1008.4 hPa | 0.76 mm | - | - | - |
| 1787814292 | 20° C | 88% | 1007.7 hPa | 0.51 mm | - | - | - |
| 1787813997 | 20° C | 88% | 1007.7 hPa | 0.51 mm | - | - | - |
| 1787813153 | 20° C | 87% | 1007.8 hPa | 0 mm | - | - | - |
| 1787812859 | 20° C | 87% | 1007.7 hPa | 0 mm | - | - | - |
| 1787812012 | 20° C | 87% | 1007.7 hPa | 0 mm | - | - | - |
| 1787811719 | 20° C | 87% | 1007.6 hPa | 0.25 mm | - | - | - |
| 1787810873 | 20° C | 87% | 1007.6 hPa | 0.25 mm | - | - | - |
| 1787810578 | 20° C | 87% | 1007.6 hPa | 0.25 mm | - | - | - |
| 1787809733 | 20° C | 87% | 1007.7 hPa | 0.25 mm | - | - | - |
| 1787809489 | 20° C | 87% | 1007.8 hPa | 0.25 mm | - | - | - |
| 1787809438 | 20° C | 87% | 1007.8 hPa | 0.25 mm | - | - | - |
| 1787808592 | 20° C | 87% | 1008.1 hPa | 0.25 mm | - | - | - |
| 1787808298 | 20° C | 87% | 1008.1 hPa | 0 mm | - | - | - |
| 1787807453 | 20° C | 86% | 1008.3 hPa | 0 mm | - | - | - |
| 1787807157 | 20.56° C | 86% | 1008.5 hPa | 0 mm | - | - | - |
| 1787806312 | 20.56° C | 84% | 1008.6 hPa | 0 mm | - | - | - |
| 1787806018 | 20.56° C | 84% | 1008.6 hPa | 0 mm | - | - | - |
| 1787805172 | 20.56° C | 84% | 1008.6 hPa | 0 mm | - | - | - |
| 1787804878 | 20.56° C | 82% | 1008.6 hPa | 0 mm | - | - | - |
* Rain latest hour (hover to see other rain measurements)
** Current wind speed in m/s (hover to see current wind gust speed)